Location: Hastringsfeld
(50.9620°N, 10.4787°E)
Time: 12:05:36
(UTC+00:00)

Cosmos 292 Rocket - Pass Details

Date: 26 September 2023
Orbit: 670 x 689 km, 74.0° (Epoch: 29 November)

Event Time Altitude Azimuth Distance (km) Brightness Sun altitude
Exits shadow 04:00:44 - 217° (SW) 2,274 6.0 -11.6°
Reaches altitude 10° 04:01:06 10° 217° (SW) 2,129 5.9 -11.6°
Maximum altitude 04:05:51 60° 298° (WNW) 784 3.8 -10.9°
Drops below altitude 10° 04:10:36 10° 19° (NNE) 2,131 6.7 -10.1°
Sets 04:12:56 0° 23° (NNE) 3,047 7.6 -9.8°
